SM2GSR-2 Weather Reports


time (UTC)temp
C
wind
direction
speed
KPH
gust
KPH
rain 1hr
cm
rain 24hr
cm
rain mn
cm
humidity
%
barometer
mb
20260506181003 3 317 0.0 0.0 0.00 0.03 0.03 74 1004.7
20260506180503 4 317 0.0 0.0 0.00 0.03 0.03 73 1004.7
20260506180004 4 317 0.0 0.0 0.00 0.03 0.03 71 1004.6
20260506175503 5 317 0.0 0.0 0.00 0.03 0.03 70 1004.6
20260506175003 5 317 0.0 0.0 0.00 0.03 0.03 69 1004.5
20260506174003 5 317 0.0 0.0 0.00 0.03 0.03 71 1004.5
20260506173503 5 317 0.0 0.0 0.00 0.03 0.03 71 1004.6
20260506173004 5 317 0.0 0.0 0.00 0.03 0.03 70 1004.5
20260506172503 5 317 0.0 0.0 0.00 0.03 0.03 69 1004.5
20260506172003 5 317 0.0 0.0 0.00 0.03 0.03 68 1004.4
20260506171003 5 76 0.0 0.0 0.00 0.03 0.03 69 1004.4
20260506170004 5 89 0.0 1.6 0.00 0.03 0.03 72 1004.3
20260506165503 5 92 1.6 3.2 0.00 0.03 0.03 72 1004.3
20260506165003 5 147 0.0 0.0 0.00 0.03 0.03 73 1004.2
20260506164003 5 147 0.0 0.0 0.00 0.03 0.03 72 1004.1
20260506163503 5 147 0.0 0.0 0.00 0.03 0.03 73 1004.1
20260506163004 5 147 0.0 8.0 0.00 0.03 0.03 73 1004.1
20260506162503 5 175 0.0 0.0 0.00 0.03 0.03 74 1004.1
20260506162003 4 183 0.0 0.0 0.00 0.03 0.03 74 1004.1
20260506161503 4 185 4.8 11.3 0.00 0.03 0.03 73 1004.1
20260506161004 5 194 1.6 8.0 0.00 0.03 0.03 71 1004.1
20260506160503 5 167 0.0 0.0 0.00 0.03 0.03 70 1004.1
20260506155004 5 85 0.0 0.0 0.03 0.03 0.03 65 1004.0
20260506154504 5 85 0.0 0.0 0.03 0.03 0.03 65 1003.9
20260506154003 5 85 0.0 0.0 0.03 0.03 0.03 65 1003.9
20260506153503 5 85 0.0 0.0 0.03 0.03 0.03 64 1004.0
20260506151003 5 86 0.0 0.0 0.03 0.03 0.03 69 1004.0
20260506150503 5 86 0.0 0.0 0.03 0.03 0.03 70 1003.9
20260506150003 5 86 0.0 8.0 0.03 0.03 0.03 75 1004.0
20260506145503 4 272 0.0 4.8 0.00 0.00 0.00 80 1004.0
20260506145003 3 281 0.0 0.0 0.00 0.00 0.00 77 1004.1
20260506144503 3 281 0.0 0.0 0.00 0.00 0.00 77 1004.3
20260506144004 3 281 0.0 8.0 0.00 0.00 0.00 76 1004.2
20260506143503 3 277 4.8 11.3 0.00 0.00 0.00 74 1004.2
20260506143004 4 313 8.0 14.5 0.00 0.00 0.00 71 1004.2
20260506142503 5 324 3.2 19.3 0.00 0.00 0.00 67 1004.0
20260506142003 5 297 1.6 14.5 0.00 0.00 0.00 60 1003.9
20260506141003 6 71 0.0 0.0 0.00 0.00 0.00 58 1003.6
20260506140003 5 332 0.0 0.0 0.00 0.00 0.00 66 1003.4
20260506135003 4 331 0.0 0.0 0.00 0.00 0.00 68 1003.4
20260506134003 4 354 1.6 11.3 0.00 0.00 0.00 68 1003.6
20260506133503 5 339 9.7 12.9 0.00 0.00 0.00 67 1003.6
20260506133003 5 349 4.8 16.1 0.00 0.00 0.00 66 1003.5
20260506132503 5 345 4.8 12.9 0.00 0.00 0.00 63 1003.4
20260506132004 6 339 11.3 22.5 0.00 0.00 0.00 61 1003.4
20260506131503 6 340 14.5 25.7 0.00 0.00 0.00 59 1003.3
20260506130003 8 267 3.2 14.5 0.00 0.00 0.00 46 1003.0
20260506125503 8 239 1.6 12.9 0.00 0.00 0.00 46 1003.0
20260506125003 7 217 0.0 3.2 0.00 0.00 0.00 49 1003.0
20260506124503 7 274 1.6 11.3 0.00 0.00 0.00 51 1003.0
20260506123503 7 219 4.8 12.9 0.00 0.00 0.00 52 1002.9
20260506123004 7 273 0.0 0.0 0.00 0.00 0.00 53 1002.8
20260506122503 7 301 0.0 0.0 0.00 0.00 0.00 51 1002.8
20260506122003 7 348 0.0 0.0 0.00 0.00 0.00 53 1002.8
20260506121503 6 266 0.0 0.0 0.00 0.00 0.00 54 1002.8
20260506121004 6 289 0.0 0.0 0.00 0.00 0.00 54 1002.9
20260506120503 6 263 0.0 0.0 0.00 0.00 0.00 53 1002.9
20260506120004 6 300 0.0 0.0 0.00 0.00 0.00 51 1002.9
20260506115503 6 278 3.2 12.9 0.00 0.00 0.00 52 1002.9
20260506115003 6 276 6.4 14.5 0.00 0.00 0.00 51 1002.8
20260506114503 6 319 12.9 24.1 0.00 0.00 0.00 53 1002.7
20260506114003 6 249 4.8 19.3 0.00 0.00 0.00 58 1002.7
20260506113503 6 205 3.2 14.5 0.00 0.00 0.00 60 1002.7
20260506113003 5 249 0.0 0.0 0.00 0.00 0.00 62 1002.8
20260506112503 5 244 0.0 0.0 0.00 0.00 0.00 62 1002.7
20260506111503 5 251 0.0 11.3 0.00 0.00 0.00 60 1002.7
20260506111003 6 278 6.4 19.3 0.00 0.00 0.00 55 1002.7
20260506110503 6 250 8.0 19.3 0.00 0.00 0.00 52 1002.5
20260506110004 7 213 0.0 4.8 0.00 0.00 0.00 51 1002.4
20260506105504 7 264 1.6 9.7 0.00 0.00 0.00 54 1002.3
20260506105003 6 255 0.0 0.0 0.00 0.00 0.00 55 1002.3
20260506104003 6 284 0.0 0.0 0.00 0.00 0.00 53 1002.2
20260506103504 6 308 0.0 0.0 0.00 0.00 0.00 51 1002.2
20260506103003 6 307 6.4 14.5 0.00 0.00 0.00 51 1002.2
20260506101503 6 316 0.0 14.5 0.00 0.00 0.00 51 1002.0
20260506101003 6 294 1.6 14.5 0.00 0.00 0.00 51 1002.1
20260506100004 7 340 6.4 16.1 0.00 0.00 0.00 50 1002.0
20260506095503 6 286 0.0 20.9 0.00 0.00 0.00 52 1002.0
20260506094504 6 326 0.0 0.0 0.00 0.00 0.00 52 1001.9
20260506093503 6 324 8.0 16.1 0.00 0.00 0.00 52 1001.8
20260506093003 6 310 9.7 20.9 0.00 0.00 0.00 52 1001.7
20260506092503 6 270 4.8 19.3 0.00 0.00 0.00 54 1001.7
20260506092003 6 305 11.3 25.7 0.00 0.00 0.00 53 1001.8
20260506091503 6 260 0.0 12.9 0.00 0.00 0.00 55 1001.7
20260506091003 5 281 0.0 0.0 0.00 0.00 0.00 56 1001.7
20260506090504 5 277 0.0 0.0 0.00 0.00 0.00 57 1001.7
20260506090003 5 220 0.0 16.1 0.00 0.00 0.00 58 1001.6
20260506085503 5 226 1.6 12.9 0.00 0.00 0.00 57 1001.6
20260506084004 5 281 0.0 0.0 0.00 0.00 0.00 56 1001.5
20260506083503 5 331 0.0 9.7 0.00 0.00 0.00 57 1001.4
20260506083003 5 305 9.7 16.1 0.00 0.00 0.00 56 1001.5
20260506082003 5 329 0.0 0.0 0.00 0.00 0.00 58 1001.4
20260506081504 5 269 0.0 4.8 0.00 0.00 0.00 60 1001.4
20260506081003 5 280 8.0 16.1 0.00 0.00 0.00 59 1001.4
20260506080503 5 312 0.0 19.3 0.00 0.00 0.00 60 1001.2
20260506073503 3 314 9.7 16.1 0.00 0.00 0.00 65 1001.0
20260506073003 3 282 0.0 1.6 0.00 0.00 0.00 66 1000.9
20260506072503 3 306 1.6 16.1 0.00 0.00 0.00 68 1000.8
20260506071504 3 270 4.8 12.9 0.00 0.00 0.00 68 1000.7
20260506071004 3 309 0.0 0.0 0.00 0.00 0.00 68 1000.7
20260506070503 3 308 9.7 20.9 0.00 0.00 0.00 67 1000.7
20260506062503 3 287 9.7 14.5 0.00 0.00 0.00 68 1000.3
20260506062003 3 277 1.6 12.9 0.00 0.00 0.00 69 1000.2
20260506061503 3 264 8.0 19.3 0.00 0.00 0.00 70 1000.1
20260506051003 1 311 6.4 12.9 0.00 0.00 0.00 75 999.8
20260506050503 1 284 8.0 19.3 0.00 0.00 0.00 75 999.8
20260506045003 1 237 3.2 14.5 0.00 0.00 0.00 76 999.7
20260506044504 1 293 3.2 12.9 0.00 0.00 0.00 76 999.6
20260506044004 1 273 4.8 16.1 0.00 0.00 0.00 77 999.5
20260506043503 1 286 1.6 8.0 0.00 0.00 0.00 78 999.5
20260506043004 0 237 0.0 0.0 0.00 0.00 0.00 78 999.5
20260506042503 0 267 0.0 0.0 0.00 0.00 0.00 78 999.5
20260506042003 0 288 0.0 0.0 0.00 0.00 0.00 78 999.5
20260506041503 0 288 0.0 0.0 0.00 0.00 0.00 79 999.4
20260506041003 0 305 0.0 0.0 0.00 0.00 0.00 79 999.4
20260506040503 0 262 0.0 0.0 0.00 0.00 0.00 79 999.4
20260506040004 0 243 0.0 4.8 0.00 0.00 0.00 80 999.4
20260506035003 0 281 0.0 4.8 0.00 0.00 0.00 80 999.3
20260506034503 0 289 1.6 11.3 0.00 0.00 0.00 80 999.2
20260506034003 0 268 1.6 4.8 0.00 0.00 0.00 81 999.2
20260506033503 0 270 0.0 8.0 0.00 0.00 0.00 81 999.3
20260506033004 0 258 0.0 8.0 0.00 0.00 0.00 81 999.3
20260506032503 -1 255 0.0 1.6 0.00 0.00 0.00 81 999.3
20260506032004 -1 236 1.6 9.7 0.00 0.00 0.00 81 999.3
20260506031503 -1 244 0.0 0.0 0.00 0.00 0.00 82 999.2
20260506031003 -1 255 0.0 0.0 0.00 0.00 0.00 82 999.1
20260506030503 -1 273 1.6 8.0 0.00 0.00 0.00 82 999.2
20260506030004 -1 244 1.6 8.0 0.00 0.00 0.00 82 999.1
20260506025004 -1 221 0.0 0.0 0.00 0.00 0.00 82 999.1
20260506024504 -1 261 0.0 0.0 0.00 0.00 0.00 82 999.1
20260506024003 -1 271 0.0 0.0 0.00 0.00 0.00 82 999.1
20260506023503 -1 251 0.0 0.0 0.00 0.00 0.00 81 999.1
20260506022504 -1 228 0.0 0.0 0.00 0.00 0.00 81 999.0
20260506022003 -1 248 0.0 0.0 0.00 0.00 0.00 81 999.0
20260506021004 -1 238 0.0 0.0 0.00 0.00 0.00 81 998.9
20260506020004 -1 243 0.0 0.0 0.00 0.00 0.00 81 998.9
20260506015004 -1 274 0.0 0.0 0.00 0.00 0.00 81 998.9
20260506014503 -1 219 0.0 0.0 0.00 0.00 0.00 81 998.9
20260506014003 -1 212 0.0 0.0 0.00 0.00 0.00 81 998.8
20260506013503 -1 272 0.0 0.0 0.00 0.00 0.00 80 998.8
20260506013003 -1 268 0.0 0.0 0.00 0.00 0.00 80 998.8
20260506012504 -1 268 0.0 0.0 0.00 0.00 0.00 81 998.7
20260506012003 -1 268 0.0 0.0 0.00 0.00 0.00 81 998.7
20260506011503 -1 268 0.0 0.0 0.00 0.00 0.00 80 998.7
20260506011003 -1 268 0.0 0.0 0.00 0.00 0.00 80 998.7
20260506010003 -1 231 0.0 0.0 0.00 0.00 0.00 80 998.7
20260506005503 -1 246 0.0 0.0 0.00 0.00 0.00 80 998.6
20260506005003 -1 246 0.0 0.0 0.00 0.00 0.00 79 998.6
20260506004503 -1 246 0.0 0.0 0.00 0.00 0.00 79 998.6
20260506003503 -1 237 0.0 0.0 0.00 0.00 0.00 79 998.6
20260506003003 -1 237 0.0 0.0 0.00 0.00 0.00 79 998.6
20260506002504 -1 263 0.0 0.0 0.00 0.00 0.00 79 998.5
20260506002003 -1 263 0.0 0.0 0.00 0.00 0.00 79 998.5
20260506001504 -1 262 0.0 0.0 0.00 0.00 0.00 79 998.5
20260506001003 -1 263 0.0 0.0 0.00 0.00 0.00 80 998.5
20260506000503 -1 263 0.0 0.0 0.00 0.00 0.00 80 998.5
20260506000004 -1 260 0.0 0.0 0.00 0.00 0.00 81 998.5
20260505235504 -2 244 0.0 0.0 0.00 0.00 0.00 81 998.5
20260505234504 -2 232 0.0 0.0 0.00 0.00 0.00 79 998.5
20260505233507 -1 232 0.0 0.0 0.00 0.00 0.00 78 998.6
20260505233005 -1 232 0.0 0.0 0.00 0.00 0.00 79 998.6
20260505232504 -1 232 0.0 0.0 0.00 0.00 0.00 78 998.6
20260505232004 -1 232 0.0 0.0 0.00 0.00 0.00 78 998.6
20260505231503 -1 260 0.0 0.0 0.00 0.00 0.00 77 998.6
20260505231003 -1 260 0.0 0.0 0.00 0.00 0.00 76 998.6
20260505230503 -1 260 0.0 0.0 0.00 0.00 0.00 75 998.6
20260505225504 -1 259 0.0 0.0 0.00 0.00 0.00 73 998.5
20260505225004 0 259 0.0 0.0 0.00 0.00 0.00 73 998.6
20260505224504 0 259 0.0 0.0 0.00 0.00 0.00 73 998.6
20260505223503 0 252 0.0 0.0 0.00 0.00 0.00 73 998.6
20260505223003 0 250 0.0 0.0 0.00 0.00 0.00 73 998.6
20260505222503 0 273 0.0 0.0 0.00 0.00 0.00 73 998.6
20260505222003 0 272 0.0 0.0 0.00 0.00 0.00 73 998.5
20260505221003 0 277 4.8 12.9 0.00 0.00 0.00 73 998.5
20260505220504 0 258 0.0 0.0 0.00 0.00 0.00 73 998.4
20260505220003 0 275 0.0 0.0 0.00 0.00 0.00 72 998.4
20260505215503 0 279 0.0 0.0 0.00 0.00 0.00 71 998.4
20260505215003 0 279 0.0 0.0 0.00 0.00 0.00 71 998.4
20260505214503 0 279 0.0 0.0 0.00 0.00 0.00 70 998.4
20260505214003 0 279 0.0 0.0 0.00 0.00 0.00 70 998.4
20260505213503 0 279 0.0 11.3 0.00 0.00 0.00 70 998.3
20260505212503 0 277 8.0 14.5 0.00 0.00 0.00 70 998.3
20260505212003 0 295 3.2 11.3 0.00 0.00 0.00 70 998.2
20260505211504 0 284 4.8 12.9 0.00 0.00 0.00 69 998.2
20260505211003 0 276 3.2 9.7 0.00 0.00 0.00 69 998.2
20260505210503 0 250 1.6 4.8 0.00 0.00 0.00 68 998.1
20260505210003 0 296 0.0 0.0 0.00 0.00 0.00 68 998.1
20260505205503 0 239 0.0 0.0 0.00 0.00 0.00 68 998.1
20260505205003 0 274 0.0 0.0 0.00 0.00 0.00 68 998.0
20260505204003 0 266 0.0 0.0 0.00 0.00 0.00 68 998.0
20260505203503 0 248 0.0 0.0 0.00 0.00 0.00 68 998.0
20260505203004 0 255 0.0 0.0 0.00 0.00 0.00 69 998.0
20260505202503 0 276 0.0 0.0 0.00 0.00 0.00 69 998.0
20260505201503 0 242 0.0 0.0 0.00 0.00 0.00 70 997.9
20260505201003 0 242 0.0 0.0 0.00 0.00 0.00 69 997.8
20260505200503 0 242 0.0 0.0 0.00 0.00 0.00 68 997.8
20260505195504 1 242 0.0 0.0 0.00 0.00 0.00 66 997.8
20260505195003 1 242 0.0 0.0 0.00 0.00 0.00 66 997.8
20260505194503 1 241 0.0 0.0 0.00 0.00 0.00 66 997.8
20260505194004 1 240 0.0 0.0 0.00 0.00 0.00 66 997.7
20260505193503 1 244 0.0 0.0 0.00 0.00 0.00 66 997.6
20260505193003 1 263 0.0 0.0 0.00 0.00 0.00 65 997.6
20260505192503 1 270 0.0 0.0 0.00 0.00 0.00 63 997.6
20260505192003 1 270 0.0 0.0 0.00 0.00 0.00 61 997.6
20260505191003 2 270 0.0 0.0 0.00 0.00 0.00 60 997.5
20260505190503 2 289 0.0 0.0 0.00 0.00 0.00 59 997.5
20260505190004 2 282 0.0 0.0 0.00 0.00 0.00 59 997.4
20260505185503 2 279 0.0 0.0 0.00 0.00 0.00 58 997.4
20260505185004 2 269 0.0 8.0 0.00 0.00 0.00 58 997.3
20260505184504 2 262 6.4 16.1 0.00 0.00 0.00 57 997.3
20260505184003 2 289 9.7 19.3 0.00 0.00 0.00 57 997.3
20260505183504 2 273 11.3 19.3 0.00 0.00 0.00 57 997.2
20260505183004 3 285 1.6 19.3 0.00 0.00 0.00 56 997.2
20260505182504 3 277 1.6 16.1 0.00 0.00 0.00 56 997.2
20260505182003 3 307 8.0 16.1 0.00 0.00 0.00 56 997.2